Time,TemperatureF,DewpointF,PressureIn,WindDirection,WindDirectionDegrees,WindSpeedMPH,WindSpeedGustMPH,Humidity,HourlyPrecipIn,Conditions,Clouds,dailyrainin,SoftwareType,DateUTC
2015-07-29 00:00:00,71.9,71.0,29.94,WSW,246,0.0,0.0,97,0.00,CLR,,0.00,WeatherDisplay:10.37,2015-07-29 04:00:00,
2015-07-29 00:05:00,71.9,71.0,29.94,WSW,246,0.0,0.0,97,0.00,CLR,,0.00,WeatherDisplay:10.37,2015-07-29 04:05:00,
2015-07-29 00:10:00,71.7,70.8,29.94,WSW,246,0.0,0.0,97,0.00,CLR,,0.00,WeatherDisplay:10.37,2015-07-29 04:10:00,
2015-07-29 00:15:00,71.5,70.6,29.94,WSW,247,0.0,0.0,97,0.00,CLR,,0.00,WeatherDisplay:10.37,2015-07-29 04:15:00,
2015-07-29 00:20:00,71.4,70.5,29.94,WSW,247,0.0,0.0,97,0.00,CLR,,0.00,WeatherDisplay:10.37,2015-07-29 04:20:00,
2015-07-29 00:25:00,71.2,70.3,29.94,WSW,247,0.0,0.0,97,0.00,CLR,,0.00,WeatherDisplay:10.37,2015-07-29 04:25:00,
2015-07-29 00:30:00,71.1,70.2,29.94,WSW,246,0.4,2.3,97,0.00,CLR,,0.00,WeatherDisplay:10.37,2015-07-29 04:30:00,
2015-07-29 00:35:00,71.0,70.1,29.93,WSW,247,0.3,1.2,97,0.00,CLR,,0.00,WeatherDisplay:10.37,2015-07-29 04:35:00,
2015-07-29 00:40:00,70.9,70.0,29.93,WSW,247,0.4,1.2,97,0.00,CLR,,0.00,WeatherDisplay:10.37,2015-07-29 04:40:00,
2015-07-29 00:45:00,70.9,70.0,29.94,WSW,245,0.2,1.2,97,0.00,CLR,,0.00,WeatherDisplay:10.37,2015-07-29 04:45:00,
2015-07-29 00:50:00,70.9,70.0,29.93,WSW,247,0.0,0.0,97,0.00,CLR,,0.00,WeatherDisplay:10.37,2015-07-29 04:50:00,
2015-07-29 00:55:00,71.0,70.1,29.93,WSW,247,0.0,0.0,97,0.00,CLR,,0.00,WeatherDisplay:10.37,2015-07-29 04:55:00,
2015-07-29 01:00:00,71.2,70.6,29.93,WSW,247,0.0,0.0,98,0.00,CLR,,0.00,WeatherDisplay:10.37,2015-07-29 05:00:00,
2015-07-29 01:05:00,71.3,70.7,29.93,WSW,246,0.0,0.0,98,0.00,CLR,,0.00,WeatherDisplay:10.37,2015-07-29 05:05:00,
2015-07-29 01:10:00,71.4,70.8,29.93,WSW,245,0.0,0.0,98,0.00,CLR,,0.00,WeatherDisplay:10.37,2015-07-29 05:10:00,
2015-07-29 01:15:00,71.4,70.5,29.93,WSW,246,0.0,0.0,97,0.00,CLR,,0.00,WeatherDisplay:10.37,2015-07-29 05:15:00,
2015-07-29 01:20:00,71.3,70.4,29.93,WSW,245,1.0,2.3,97,0.00,CLR,,0.00,WeatherDisplay:10.37,2015-07-29 05:20:00,
2015-07-29 01:25:00,71.2,70.3,29.93,WSW,246,0.0,0.0,97,0.00,CLR,,0.00,WeatherDisplay:10.37,2015-07-29 05:25:00,
2015-07-29 01:30:00,71.1,70.2,29.93,WSW,246,0.0,0.0,97,0.00,CLR,,0.00,WeatherDisplay:10.37,2015-07-29 05:30:00,
2015-07-29 01:35:00,70.9,70.0,29.93,WSW,246,0.0,0.0,97,0.00,CLR,,0.00,WeatherDisplay:10.37,2015-07-29 05:35:00,
2015-07-29 01:40:00,70.8,69.9,29.93,WSW,246,0.0,0.0,97,0.00,CLR,,0.00,WeatherDisplay:10.37,2015-07-29 05:40:00,
2015-07-29 01:45:00,70.6,69.7,29.92,WSW,246,0.0,0.0,97,0.00,CLR,,0.00,WeatherDisplay:10.37,2015-07-29 05:45:00,
2015-07-29 01:50:00,70.5,69.6,29.92,WSW,247,0.0,0.0,97,0.00,CLR,,0.00,WeatherDisplay:10.37,2015-07-29 05:50:00,
2015-07-29 01:55:00,70.4,69.5,29.93,WSW,246,0.0,0.0,97,0.00,CLR,,0.00,WeatherDisplay:10.37,2015-07-29 05:55:00,
2015-07-29 02:00:00,70.3,69.4,29.92,WSW,247,0.0,0.0,97,0.00,CLR,,0.00,WeatherDisplay:10.37,2015-07-29 06:00:00,
2015-07-29 02:05:00,70.2,69.3,29.92,WSW,247,0.0,0.0,97,0.00,CLR,,0.00,WeatherDisplay:10.37,2015-07-29 06:05:00,
2015-07-29 02:10:00,70.1,69.2,29.92,WSW,246,0.0,0.0,97,0.00,CLR,,0.00,WeatherDisplay:10.37,2015-07-29 06:10:00,
2015-07-29 02:15:00,69.9,69.0,29.92,WSW,247,0.0,0.0,97,0.00,CLR,,0.00,WeatherDisplay:10.37,2015-07-29 06:15:00,
2015-07-29 02:20:00,69.8,68.9,29.92,WSW,246,0.0,0.0,97,0.00,CLR,,0.00,WeatherDisplay:10.37,2015-07-29 06:20:00,
2015-07-29 02:25:00,69.7,68.8,29.92,WSW,246,0.0,0.0,97,0.00,CLR,,0.00,WeatherDisplay:10.37,2015-07-29 06:25:00,
2015-07-29 02:30:00,69.6,68.7,29.91,WSW,247,0.0,0.0,97,0.00,CLR,,0.00,WeatherDisplay:10.37,2015-07-29 06:30:00,
2015-07-29 02:35:00,69.5,68.6,29.91,WSW,246,0.0,1.2,97,0.00,CLR,,0.00,WeatherDisplay:10.37,2015-07-29 06:35:00,
2015-07-29 02:40:00,69.4,68.5,29.91,WSW,247,0.0,0.0,97,0.00,CLR,,0.00,WeatherDisplay:10.37,2015-07-29 06:40:00,
2015-07-29 02:45:00,69.4,68.5,29.91,WSW,247,0.0,0.0,97,0.00,CLR,,0.00,WeatherDisplay:10.37,2015-07-29 06:45:00,
2015-07-29 02:50:00,69.3,68.7,29.91,WSW,247,0.0,0.0,98,0.00,CLR,,0.00,WeatherDisplay:10.37,2015-07-29 06:50:00,
2015-07-29 02:55:00,69.3,68.7,29.91,WSW,247,0.0,0.0,98,0.00,CLR,,0.00,WeatherDisplay:10.37,2015-07-29 06:55:00,
2015-07-29 03:00:00,69.2,68.6,29.91,WSW,247,0.0,0.0,98,0.00,CLR,,0.00,WeatherDisplay:10.37,2015-07-29 07:00:00,
2015-07-29 03:05:00,69.1,68.2,29.91,WSW,247,0.0,0.0,97,0.00,CLR,,0.00,WeatherDisplay:10.37,2015-07-29 07:05:00,
2015-07-29 03:10:00,69.0,68.1,29.91,WSW,246,0.0,0.0,97,0.00,CLR,,0.00,WeatherDisplay:10.37,2015-07-29 07:10:00,
2015-07-29 03:15:00,68.9,68.0,29.91,WSW,246,0.0,0.0,97,0.00,CLR,,0.00,WeatherDisplay:10.37,2015-07-29 07:15:00,
2015-07-29 03:20:00,68.8,67.9,29.91,WSW,246,0.0,0.0,97,0.00,CLR,,0.00,WeatherDisplay:10.37,2015-07-29 07:20:00,
2015-07-29 03:25:00,68.8,67.9,29.91,WSW,246,0.0,0.0,97,0.00,CLR,,0.00,WeatherDisplay:10.37,2015-07-29 07:25:00,
2015-07-29 03:30:00,68.7,68.1,29.91,WSW,246,0.0,0.0,98,0.00,CLR,,0.00,WeatherDisplay:10.37,2015-07-29 07:30:00,
2015-07-29 03:35:00,68.8,68.2,29.91,WSW,246,0.0,0.0,98,0.00,CLR,,0.00,WeatherDisplay:10.37,2015-07-29 07:35:00,
2015-07-29 03:45:00,68.7,68.1,29.91,WSW,247,0.0,0.0,98,0.00,CLR,,0.00,WeatherDisplay:10.37,2015-07-29 07:45:00,
2015-07-29 03:50:00,68.6,68.0,29.91,WSW,247,0.0,0.0,98,0.00,CLR,,0.00,WeatherDisplay:10.37,2015-07-29 07:50:00,
2015-07-29 03:55:00,68.5,67.9,29.91,WSW,247,0.0,0.0,98,0.00,CLR,,0.00,WeatherDisplay:10.37,2015-07-29 07:55:00,
2015-07-29 04:00:00,68.4,67.8,29.91,WSW,246,0.0,0.0,98,0.00,CLR,,0.00,WeatherDisplay:10.37,2015-07-29 08:00:00,
2015-07-29 04:10:00,68.2,67.3,29.91,WSW,246,0.0,0.0,97,0.00,CLR,,0.00,WeatherDisplay:10.37,2015-07-29 08:10:00,
2015-07-29 04:15:00,68.1,67.2,29.91,WSW,246,0.0,0.0,97,0.00,CLR,,0.00,WeatherDisplay:10.37,2015-07-29 08:15:00,
2015-07-29 04:20:00,68.0,67.4,29.91,WSW,246,0.0,0.0,98,0.00,CLR,,0.00,WeatherDisplay:10.37,2015-07-29 08:20:00,
2015-07-29 04:25:00,68.0,67.4,29.91,WSW,246,0.0,0.0,98,0.00,CLR,,0.00,WeatherDisplay:10.37,2015-07-29 08:25:00,
2015-07-29 04:30:00,67.9,67.3,29.91,WSW,246,0.0,0.0,98,0.00,CLR,,0.00,WeatherDisplay:10.37,2015-07-29 08:30:00,
2015-07-29 04:35:00,67.8,67.2,29.91,WSW,247,0.0,0.0,98,0.00,CLR,,0.00,WeatherDisplay:10.37,2015-07-29 08:35:00,
2015-07-29 04:40:00,67.8,67.2,29.92,WSW,246,0.0,0.0,98,0.00,CLR,,0.00,WeatherDisplay:10.37,2015-07-29 08:40:00,
2015-07-29 04:45:00,67.7,67.1,29.92,WSW,246,0.0,0.0,98,0.00,CLR,,0.00,WeatherDisplay:10.37,2015-07-29 08:45:00,
2015-07-29 04:50:00,67.7,67.1,29.92,WSW,246,0.0,0.0,98,0.00,CLR,,0.00,WeatherDisplay:10.37,2015-07-29 08:50:00,
2015-07-29 04:55:00,67.7,67.1,29.92,WSW,246,0.0,0.0,98,0.00,CLR,,0.00,WeatherDisplay:10.37,2015-07-29 08:55:00,
2015-07-29 05:00:00,67.6,67.0,29.92,WSW,246,0.0,0.0,98,0.00,CLR,,0.00,WeatherDisplay:10.37,2015-07-29 09:00:00,
2015-07-29 05:05:00,67.6,67.0,29.92,WSW,247,0.0,0.0,98,0.00,CLR,,0.00,WeatherDisplay:10.37,2015-07-29 09:05:00,
2015-07-29 05:10:00,67.6,67.0,29.93,WSW,247,0.0,0.0,98,0.00,CLR,,0.00,WeatherDisplay:10.37,2015-07-29 09:10:00,
2015-07-29 05:15:00,67.7,67.1,29.92,WSW,247,0.0,0.0,98,0.00,CLR,,0.00,WeatherDisplay:10.37,2015-07-29 09:15:00,
2015-07-29 05:20:00,67.6,67.0,29.92,WSW,246,0.0,0.0,98,0.00,CLR,,0.00,WeatherDisplay:10.37,2015-07-29 09:20:00,
2015-07-29 05:25:00,67.6,67.0,29.93,WSW,246,0.0,0.0,98,0.01,RA,,0.01,WeatherDisplay:10.37,2015-07-29 09:25:00,
2015-07-29 05:30:00,67.6,67.0,29.93,WSW,246,0.0,0.0,98,0.01,RA,,0.01,WeatherDisplay:10.37,2015-07-29 09:30:00,
2015-07-29 05:35:00,67.5,66.9,29.93,WSW,247,0.0,0.0,98,0.01,CLR,,0.01,WeatherDisplay:10.37,2015-07-29 09:35:00,
2015-07-29 05:40:00,67.4,66.8,29.93,WSW,247,0.0,0.0,98,0.01,CLR,,0.01,WeatherDisplay:10.37,2015-07-29 09:40:00,
2015-07-29 05:45:00,67.4,66.8,29.93,WSW,246,0.0,0.0,98,0.01,CLR,,0.01,WeatherDisplay:10.37,2015-07-29 09:45:00,
2015-07-29 05:55:00,67.3,66.7,29.93,WSW,246,0.0,0.0,98,0.01,CLR,,0.01,WeatherDisplay:10.37,2015-07-29 09:55:00,
2015-07-29 06:00:00,67.2,66.6,29.93,WSW,247,0.0,0.0,98,0.01,CLR,,0.01,WeatherDisplay:10.37,2015-07-29 10:00:00,
2015-07-29 06:05:00,67.1,66.5,29.93,WSW,246,0.0,0.0,98,0.01,CLR,,0.01,WeatherDisplay:10.37,2015-07-29 10:05:00,
2015-07-29 06:15:00,67.0,66.4,29.93,WSW,246,0.0,0.0,98,0.01,CLR,,0.01,WeatherDisplay:10.37,2015-07-29 10:15:00,
2015-07-29 06:20:00,67.0,66.4,29.93,WSW,247,0.0,0.0,98,0.01,CLR,,0.01,WeatherDisplay:10.37,2015-07-29 10:20:00,
2015-07-29 06:25:00,67.1,66.5,29.93,WSW,247,0.0,0.0,98,0.00,CLR,,0.01,WeatherDisplay:10.37,2015-07-29 10:25:00,
2015-07-29 06:30:00,67.1,66.5,29.93,WSW,246,0.0,0.0,98,0.00,CLR,,0.01,WeatherDisplay:10.37,2015-07-29 10:30:00,
2015-07-29 06:35:00,67.2,66.6,29.93,WSW,246,0.0,0.0,98,0.00,CLR,,0.01,WeatherDisplay:10.37,2015-07-29 10:35:00,
2015-07-29 06:40:00,67.3,66.7,29.93,WSW,246,0.0,0.0,98,0.00,CLR,,0.01,WeatherDisplay:10.37,2015-07-29 10:40:00,
2015-07-29 06:45:00,67.5,66.9,29.93,WSW,247,0.0,0.0,98,0.00,CLR,,0.01,WeatherDisplay:10.37,2015-07-29 10:45:00,
2015-07-29 06:50:00,67.8,67.2,29.93,WSW,247,0.0,0.0,98,0.00,CLR,,0.01,WeatherDisplay:10.37,2015-07-29 10:50:00,
2015-07-29 07:00:00,68.5,68.2,29.93,WSW,246,0.0,0.0,99,0.00,CLR,,0.01,WeatherDisplay:10.37,2015-07-29 11:00:00,
2015-07-29 07:05:00,68.8,68.5,29.93,WSW,247,0.0,0.0,99,0.00,CLR,,0.01,WeatherDisplay:10.37,2015-07-29 11:05:00,
2015-07-29 07:15:00,69.8,69.5,29.94,WSW,247,0.0,1.2,99,0.00,CLR,,0.01,WeatherDisplay:10.37,2015-07-29 11:15:00,
2015-07-29 07:20:00,70.4,70.1,29.94,WSW,247,0.1,1.2,99,0.00,CLR,,0.01,WeatherDisplay:10.37,2015-07-29 11:20:00,
2015-07-29 07:25:00,71.4,71.1,29.94,WSW,248,0.1,1.0,99,0.00,CLR,,0.01,WeatherDisplay:10.37,2015-07-29 11:25:00,
2015-07-29 07:30:00,72.1,71.8,29.94,WSW,248,0.0,0.0,99,0.00,CLR,,0.01,WeatherDisplay:10.37,2015-07-29 11:30:00,
2015-07-29 07:35:00,72.6,72.3,29.94,WNW,290,0.4,2.0,99,0.00,CLR,,0.01,WeatherDisplay:10.37,2015-07-29 11:35:00,
2015-07-29 07:40:00,73.1,72.8,29.94,WNW,290,0.0,1.2,99,0.00,CLR,,0.01,WeatherDisplay:10.37,2015-07-29 11:40:00,
2015-07-29 07:45:00,73.5,73.2,29.94,WNW,288,0.2,2.0,99,0.00,CLR,,0.01,WeatherDisplay:10.37,2015-07-29 11:45:00,
2015-07-29 07:50:00,74.0,73.7,29.94,WNW,287,0.0,0.0,99,0.00,CLR,,0.01,WeatherDisplay:10.37,2015-07-29 11:50:00,
2015-07-29 07:55:00,74.5,73.9,29.94,NE,34,1.1,3.5,98,0.00,CLR,,0.01,WeatherDisplay:10.37,2015-07-29 11:55:00,
2015-07-29 08:00:00,74.8,73.9,29.94,WNW,303,0.7,1.2,97,0.00,CLR,,0.01,WeatherDisplay:10.37,2015-07-29 12:00:00,
2015-07-29 08:05:00,75.2,74.3,29.94,WNW,295,0.3,2.3,97,0.00,CLR,,0.01,WeatherDisplay:10.37,2015-07-29 12:05:00,
2015-07-29 08:10:00,75.6,74.1,29.94,WNW,296,1.1,2.3,95,0.00,CLR,,0.01,WeatherDisplay:10.37,2015-07-29 12:10:00,
2015-07-29 08:15:00,76.4,74.5,29.94,NW,322,0.1,1.2,94,0.00,CLR,,0.01,WeatherDisplay:10.37,2015-07-29 12:15:00,
2015-07-29 08:20:00,77.2,75.0,29.94,NW,322,0.2,1.2,93,0.00,CLR,,0.01,WeatherDisplay:10.37,2015-07-29 12:20:00,
2015-07-29 08:25:00,77.9,74.4,29.95,North,349,2.6,3.5,89,0.00,CLR,,0.01,WeatherDisplay:10.37,2015-07-29 12:25:00,
2015-07-29 08:30:00,78.9,74.7,29.95,NW,310,1.2,3.5,87,0.00,CLR,,0.01,WeatherDisplay:10.37,2015-07-29 12:30:00,
2015-07-29 08:35:00,79.6,74.3,29.95,WNW,289,1.2,3.5,84,0.00,CLR,,0.01,WeatherDisplay:10.37,2015-07-29 12:35:00,
2015-07-29 08:40:00,79.9,74.3,29.95,WSW,247,1.1,3.0,83,0.00,CLR,,0.01,WeatherDisplay:10.37,2015-07-29 12:40:00,
2015-07-29 08:45:00,80.4,74.0,29.94,WNW,299,0.2,1.2,81,0.00,CLR,,0.01,WeatherDisplay:10.37,2015-07-29 12:45:00,
2015-07-29 08:50:00,81.1,74.3,29.94,North,11,0.0,0.0,80,0.00,CLR,,0.01,WeatherDisplay:10.37,2015-07-29 12:50:00,
2015-07-29 08:55:00,81.9,74.4,29.94,WNW,299,1.0,3.5,78,0.00,CLR,,0.01,WeatherDisplay:10.37,2015-07-29 12:55:00,
2015-07-29 09:00:00,82.4,74.5,29.94,WNW,282,0.0,0.0,77,0.00,CLR,,0.01,WeatherDisplay:10.37,2015-07-29 13:00:00,
2015-07-29 09:10:00,83.0,73.9,29.94,North,8,1.3,3.5,74,0.00,CLR,,0.01,WeatherDisplay:10.37,2015-07-29 13:10:00,
2015-07-29 09:15:00,83.5,73.5,29.94,NE,39,1.1,3.5,72,0.00,CLR,,0.01,WeatherDisplay:10.37,2015-07-29 13:15:00,
2015-07-29 09:20:00,84.0,73.6,29.94,NE,47,1.0,2.3,71,0.00,CLR,,0.01,WeatherDisplay:10.37,2015-07-29 13:20:00,
2015-07-29 09:25:00,84.1,73.7,29.94,West,274,2.0,3.5,71,0.00,CLR,,0.01,WeatherDisplay:10.37,2015-07-29 13:25:00,
2015-07-29 09:30:00,84.1,73.3,29.94,NW,308,1.1,2.3,70,0.00,CLR,,0.01,WeatherDisplay:10.37,2015-07-29 13:30:00,
2015-07-29 09:35:00,84.5,72.3,29.94,NE,54,0.4,1.2,67,0.00,CLR,,0.01,WeatherDisplay:10.37,2015-07-29 13:35:00,
2015-07-29 09:40:00,85.1,72.9,29.94,NE,52,1.1,2.3,67,0.00,CLR,,0.01,WeatherDisplay:10.37,2015-07-29 13:40:00,
2015-07-29 09:45:00,85.3,73.1,29.94,NW,326,1.2,3.5,67,0.00,CLR,,0.01,WeatherDisplay:10.37,2015-07-29 13:45:00,
2015-07-29 09:50:00,85.7,72.1,29.94,NE,35,0.4,1.2,64,0.00,CLR,,0.01,WeatherDisplay:10.37,2015-07-29 13:50:00,
2015-07-29 09:55:00,86.3,72.2,29.94,NNE,25,1.8,3.5,63,0.00,CLR,,0.01,WeatherDisplay:10.37,2015-07-29 13:55:00,
2015-07-29 10:00:00,86.6,73.0,29.94,NNE,29,1.4,4.0,64,0.00,CLR,,0.01,WeatherDisplay:10.37,2015-07-29 14:00:00,
2015-07-29 10:05:00,87.1,73.0,29.94,ENE,72,0.3,1.2,63,0.00,CLR,,0.01,WeatherDisplay:10.37,2015-07-29 14:05:00,
2015-07-29 10:10:00,87.1,72.0,29.94,NNW,333,1.9,3.5,61,0.00,CLR,,0.01,WeatherDisplay:10.37,2015-07-29 14:10:00,
2015-07-29 10:15:00,87.3,72.2,29.94,WNW,283,1.3,3.5,61,0.00,CLR,,0.01,WeatherDisplay:10.37,2015-07-29 14:15:00,
2015-07-29 10:20:00,87.1,71.0,29.94,West,266,2.9,3.5,59,0.00,CLR,,0.01,WeatherDisplay:10.37,2015-07-29 14:20:00,
2015-07-29 10:25:00,87.0,69.9,29.94,NW,318,0.9,2.3,57,0.00,CLR,,0.01,WeatherDisplay:10.37,2015-07-29 14:25:00,
2015-07-29 10:30:00,87.4,70.8,29.94,NE,36,1.5,3.0,58,0.00,CLR,,0.01,WeatherDisplay:10.37,2015-07-29 14:30:00,
2015-07-29 10:35:00,88.0,72.4,29.94,NNW,336,0.5,2.3,60,0.00,CLR,,0.01,WeatherDisplay:10.37,2015-07-29 14:35:00,
2015-07-29 10:40:00,88.7,69.9,29.94,NE,36,1.6,3.5,54,0.00,CLR,,0.01,WeatherDisplay:10.37,2015-07-29 14:40:00,
2015-07-29 10:45:00,89.1,69.7,29.94,North,359,2.8,3.5,53,0.00,CLR,,0.01,WeatherDisplay:10.37,2015-07-29 14:45:00,
2015-07-29 10:50:00,89.5,70.1,29.94,WSW,251,2.3,3.5,53,0.00,CLR,,0.01,WeatherDisplay:10.37,2015-07-29 14:50:00,
2015-07-29 10:55:00,89.6,70.2,29.94,NNW,328,1.1,3.0,53,0.00,CLR,,0.01,WeatherDisplay:10.37,2015-07-29 14:55:00,
2015-07-29 11:00:00,89.6,69.6,29.94,West,268,1.6,3.5,52,0.00,CLR,,0.01,WeatherDisplay:10.37,2015-07-29 15:00:00,
2015-07-29 11:05:00,89.2,68.1,29.94,West,262,1.5,2.3,50,0.00,CLR,,0.01,WeatherDisplay:10.37,2015-07-29 15:05:00,
2015-07-29 11:10:00,89.1,69.7,29.94,West,262,1.8,3.5,53,0.00,CLR,,0.01,WeatherDisplay:10.37,2015-07-29 15:10:00,
2015-07-29 11:15:00,89.5,69.5,29.94,NW,320,1.0,2.3,52,0.00,CLR,,0.01,WeatherDisplay:10.37,2015-07-29 15:15:00,
2015-07-29 11:25:00,90.4,71.5,29.93,WSW,255,0.8,2.3,54,0.00,CLR,,0.01,WeatherDisplay:10.37,2015-07-29 15:25:00,
2015-07-29 11:30:00,90.3,73.0,29.93,SSW,197,1.1,2.3,57,0.00,CLR,,0.01,WeatherDisplay:10.37,2015-07-29 15:30:00,
2015-07-29 11:35:00,89.9,73.7,29.93,West,272,0.9,2.3,59,0.00,CLR,,0.01,WeatherDisplay:10.37,2015-07-29 15:35:00,
2015-07-29 11:40:00,89.5,72.8,29.93,WSW,254,2.3,3.5,58,0.00,CLR,,0.01,WeatherDisplay:10.37,2015-07-29 15:40:00,
2015-07-29 11:45:00,88.6,72.9,29.93,WSW,241,2.6,5.8,60,0.00,CLR,,0.01,WeatherDisplay:10.37,2015-07-29 15:45:00,
2015-07-29 11:50:00,88.3,72.2,29.93,SSE,160,3.3,5.8,59,0.00,CLR,,0.01,WeatherDisplay:10.37,2015-07-29 15:50:00,
2015-07-29 11:55:00,88.2,73.0,29.93,South,171,0.8,2.3,61,0.00,CLR,,0.01,WeatherDisplay:10.37,2015-07-29 15:55:00,
2015-07-29 12:05:00,87.6,73.9,29.93,South,179,1.8,3.5,64,0.00,CLR,,0.01,WeatherDisplay:10.37,2015-07-29 16:05:00,
2015-07-29 12:10:00,87.2,74.0,29.93,South,183,1.1,3.5,65,0.00,CLR,,0.01,WeatherDisplay:10.37,2015-07-29 16:10:00,
2015-07-29 12:15:00,86.8,74.1,29.93,SSE,156,2.6,4.6,66,0.00,CLR,,0.01,WeatherDisplay:10.37,2015-07-29 16:15:00,
2015-07-29 12:20:00,86.9,74.6,29.92,WSW,249,1.5,3.5,67,0.00,CLR,,0.01,WeatherDisplay:10.37,2015-07-29 16:20:00,
2015-07-29 12:25:00,87.1,73.4,29.93,South,172,3.3,4.6,64,0.00,CLR,,0.01,WeatherDisplay:10.37,2015-07-29 16:25:00,
2015-07-29 12:30:00,86.8,73.6,29.93,South,187,2.3,3.5,65,0.00,CLR,,0.01,WeatherDisplay:10.37,2015-07-29 16:30:00,
2015-07-29 12:35:00,86.4,73.7,29.93,SW,226,2.1,3.5,66,0.00,CLR,,0.01,WeatherDisplay:10.37,2015-07-29 16:35:00,
2015-07-29 12:40:00,86.4,74.6,29.93,WNW,282,1.6,3.5,68,0.00,CLR,,0.01,WeatherDisplay:10.37,2015-07-29 16:40:00,
2015-07-29 12:45:00,86.6,74.8,29.93,South,181,2.9,4.6,68,0.00,CLR,,0.01,WeatherDisplay:10.37,2015-07-29 16:45:00,
2015-07-29 12:50:00,86.2,74.0,29.93,West,271,2.5,4.6,67,0.00,CLR,,0.01,WeatherDisplay:10.37,2015-07-29 16:50:00,
2015-07-29 12:55:00,85.8,73.6,29.93,SSW,198,1.9,4.6,67,0.00,CLR,,0.01,WeatherDisplay:10.37,2015-07-29 16:55:00,
2015-07-29 13:00:00,85.4,74.1,29.93,SSE,165,4.3,9.2,69,0.00,CLR,,0.01,WeatherDisplay:10.37,2015-07-29 17:00:00,
2015-07-29 13:05:00,85.2,73.9,29.93,West,270,2.0,3.5,69,0.00,CLR,,0.01,WeatherDisplay:10.37,2015-07-29 17:05:00,
2015-07-29 13:10:00,85.1,73.8,29.93,South,188,1.6,3.5,69,0.00,CLR,,0.01,WeatherDisplay:10.37,2015-07-29 17:10:00,
2015-07-29 13:15:00,85.4,73.6,29.93,WSW,258,2.3,3.5,68,0.00,CLR,,0.01,WeatherDisplay:10.37,2015-07-29 17:15:00,
2015-07-29 13:25:00,85.2,73.0,29.93,SW,223,0.1,2.3,67,0.00,CLR,,0.01,WeatherDisplay:10.37,2015-07-29 17:25:00,
2015-07-29 13:30:00,85.2,72.6,29.93,SW,232,2.3,4.6,66,0.00,CLR,,0.01,WeatherDisplay:10.37,2015-07-29 17:30:00,
2015-07-29 13:35:00,85.1,73.3,29.93,SSW,194,2.0,3.5,68,0.00,CLR,,0.01,WeatherDisplay:10.37,2015-07-29 17:35:00,
2015-07-29 13:40:00,85.0,74.1,29.93,West,275,2.0,3.5,70,0.00,CLR,,0.01,WeatherDisplay:10.37,2015-07-29 17:40:00,
2015-07-29 13:45:00,85.0,73.7,29.93,SSE,163,1.5,2.3,69,0.00,CLR,,0.01,WeatherDisplay:10.37,2015-07-29 17:45:00,
2015-07-29 13:50:00,84.5,72.3,29.93,WSW,251,3.4,8.1,67,0.00,CLR,,0.01,WeatherDisplay:10.37,2015-07-29 17:50:00,
2015-07-29 13:55:00,84.2,72.0,29.93,WSW,250,3.3,6.9,67,0.00,CLR,,0.01,WeatherDisplay:10.37,2015-07-29 17:55:00,
2015-07-29 14:00:00,84.2,72.5,29.93,South,185,0.5,1.2,68,0.00,CLR,,0.01,WeatherDisplay:10.37,2015-07-29 18:00:00,
2015-07-29 14:05:00,84.4,71.8,29.93,SSE,164,2.3,8.1,66,0.00,CLR,,0.01,WeatherDisplay:10.37,2015-07-29 18:05:00,
2015-07-29 14:10:00,84.6,72.4,29.92,WSW,246,1.3,3.5,67,0.00,CLR,,0.01,WeatherDisplay:10.37,2015-07-29 18:10:00,
2015-07-29 14:15:00,84.4,73.1,29.93,SE,134,3.4,5.0,69,0.00,CLR,,0.01,WeatherDisplay:10.37,2015-07-29 18:15:00,
2015-07-29 14:20:00,84.0,74.0,29.92,WSW,249,2.8,4.6,72,0.00,CLR,,0.01,WeatherDisplay:10.37,2015-07-29 18:20:00,
2015-07-29 14:25:00,84.0,73.6,29.92,WSW,256,1.4,3.5,71,0.00,CLR,,0.01,WeatherDisplay:10.37,2015-07-29 18:25:00,
2015-07-29 14:30:00,84.3,73.9,29.93,SW,222,1.0,3.5,71,0.00,CLR,,0.01,WeatherDisplay:10.37,2015-07-29 18:30:00,
2015-07-29 14:35:00,84.3,73.9,29.92,West,266,1.7,3.5,71,0.00,CLR,,0.01,WeatherDisplay:10.37,2015-07-29 18:35:00,
2015-07-29 14:40:00,84.4,74.0,29.92,SW,226,1.0,2.3,71,0.00,CLR,,0.01,WeatherDisplay:10.37,2015-07-29 18:40:00,
2015-07-29 14:45:00,84.4,73.5,29.93,SW,227,2.5,4.6,70,0.00,CLR,,0.01,WeatherDisplay:10.37,2015-07-29 18:45:00,
2015-07-29 14:50:00,84.1,73.3,29.92,West,265,5.8,10.4,70,0.00,CLR,,0.01,WeatherDisplay:10.37,2015-07-29 18:50:00,
2015-07-29 14:55:00,83.8,73.0,29.92,West,270,2.3,4.6,70,0.00,CLR,,0.01,WeatherDisplay:10.37,2015-07-29 18:55:00,
2015-07-29 15:00:00,83.4,73.0,29.92,WSW,247,3.9,8.1,71,0.00,CLR,,0.01,WeatherDisplay:10.37,2015-07-29 19:00:00,
2015-07-29 15:05:00,83.6,74.4,29.92,SSW,201,1.5,3.5,74,0.00,CLR,,0.01,WeatherDisplay:10.37,2015-07-29 19:05:00,
2015-07-29 15:10:00,83.6,74.0,29.92,West,260,2.9,3.5,73,0.00,CLR,,0.01,WeatherDisplay:10.37,2015-07-29 19:10:00,
2015-07-29 15:15:00,83.6,74.4,29.92,WSW,241,2.4,4.6,74,0.00,CLR,,0.01,WeatherDisplay:10.37,2015-07-29 19:15:00,
2015-07-29 15:20:00,83.5,73.9,29.92,SSW,206,2.1,3.5,73,0.00,CLR,,0.01,WeatherDisplay:10.37,2015-07-29 19:20:00,
2015-07-29 15:25:00,83.4,74.2,29.92,SW,226,1.2,2.3,74,0.00,CLR,,0.01,WeatherDisplay:10.37,2015-07-29 19:25:00,
2015-07-29 15:30:00,83.5,74.3,29.92,SW,228,4.6,11.5,74,0.00,CLR,,0.01,WeatherDisplay:10.37,2015-07-29 19:30:00,
2015-07-29 15:35:00,83.6,73.6,29.91,SW,223,7.3,11.5,72,0.00,CLR,,0.01,WeatherDisplay:10.37,2015-07-29 19:35:00,
2015-07-29 15:40:00,83.4,74.2,29.91,West,266,3.1,6.9,74,0.00,CLR,,0.01,WeatherDisplay:10.37,2015-07-29 19:40:00,
2015-07-29 15:45:00,83.6,73.6,29.91,West,269,3.7,6.9,72,0.00,CLR,,0.01,WeatherDisplay:10.37,2015-07-29 19:45:00,
2015-07-29 15:50:00,83.9,73.5,29.91,WSW,258,2.4,4.0,71,0.00,CLR,,0.01,WeatherDisplay:10.37,2015-07-29 19:50:00,
2015-07-29 15:55:00,84.0,74.0,29.91,SSW,206,3.2,5.0,72,0.00,CLR,,0.01,WeatherDisplay:10.37,2015-07-29 19:55:00,
2015-07-29 16:00:00,83.7,73.3,29.91,SSW,213,6.0,8.1,71,0.00,CLR,,0.01,WeatherDisplay:10.37,2015-07-29 20:00:00,
2015-07-29 16:05:00,83.7,73.3,29.91,WSW,248,2.4,3.5,71,0.00,CLR,,0.01,WeatherDisplay:10.37,2015-07-29 20:05:00,
2015-07-29 16:10:00,83.5,73.5,29.91,West,269,1.7,3.5,72,0.00,CLR,,0.01,WeatherDisplay:10.37,2015-07-29 20:10:00,
2015-07-29 16:15:00,83.3,72.9,29.91,WSW,256,2.9,8.1,71,0.00,CLR,,0.01,WeatherDisplay:10.37,2015-07-29 20:15:00,
2015-07-29 16:20:00,83.3,73.3,29.90,WSW,242,2.8,4.6,72,0.00,CLR,,0.01,WeatherDisplay:10.37,2015-07-29 20:20:00,